| time (UTC) | temp F | wind direction | speed MPH | gust MPH | rain 1hr in | rain 24hr in | rain mn in | humidity % | barometer mb |
| 20260507081548 | 58 | 55 | 0.0 | 4.0 | 0.00 | 0.35 | 0.17 | 99 | 1014.3 |
| 20260507080100 | 57 | 132 | 0.0 | 2.0 | 0.00 | 0.35 | 0.17 | 100 | 1014.4 |
| 20260507074545 | 57 | 132 | 0.0 | 3.0 | 0.00 | 0.35 | 0.17 | 100 | 1014.4 |
| 20260507073046 | 56 | 132 | 0.0 | 0.0 | 0.00 | 0.35 | 0.17 | 100 | 1014.3 |
| 20260507071540 | 56 | 132 | 0.0 | 0.0 | 0.00 | 0.35 | 0.17 | 100 | 1014.4 |
| 20260507070039 | 55 | 132 | 0.0 | 0.0 | 0.00 | 0.35 | 0.17 | 100 | 1014.4 |
| 20260507064537 | 55 | 132 | 0.0 | 0.0 | 0.00 | 0.35 | 0.17 | 100 | 1014.3 |
| 20260507063035 | 55 | 132 | 0.0 | 0.0 | 0.00 | 0.35 | 0.17 | 100 | 1014.2 |
| 20260507061535 | 54 | 132 | 0.0 | 3.0 | 0.00 | 0.35 | 0.17 | 100 | 1014.1 |
| 20260507060039 | 54 | 132 | 0.0 | 2.0 | 0.00 | 0.35 | 0.17 | 100 | 1014.0 |
| 20260507054537 | 54 | 132 | 0.0 | 2.0 | 0.00 | 0.35 | 0.17 | 100 | 1013.7 |
| 20260507053033 | 54 | 130 | 0.0 | 0.0 | 0.00 | 0.35 | 0.17 | 100 | 1013.9 |
| 20260507051533 | 53 | 130 | 0.0 | 0.0 | 0.00 | 0.35 | 0.17 | 100 | 1013.7 |
| 20260507050033 | 53 | 130 | 0.0 | 0.0 | 0.00 | 0.35 | 0.17 | 100 | 1013.8 |
| 20260507044530 | 53 | 130 | 0.0 | 0.0 | 0.00 | 0.38 | 0.17 | 100 | 1013.6 |
| 20260507043029 | 53 | 130 | 0.0 | 0.0 | 0.00 | 0.38 | 0.17 | 100 | 1013.4 |
| 20260507041528 | 53 | 130 | 0.0 | 0.0 | 0.00 | 0.38 | 0.17 | 100 | 1013.2 |
| 20260507040029 | 53 | 130 | 0.0 | 0.0 | 0.00 | 0.38 | 0.17 | 100 | 1013.2 |
| 20260507034527 | 53 | 130 | 0.0 | 0.0 | 0.00 | 0.41 | 0.17 | 100 | 1013.1 |
| 20260507033030 | 53 | 130 | 0.0 | 0.0 | 0.01 | 0.41 | 0.17 | 100 | 1013.3 |
| 20260507031526 | 53 | 130 | 0.0 | 0.0 | 0.01 | 0.41 | 0.17 | 100 | 1013.2 |
| 20260507030026 | 53 | 130 | 0.0 | 0.0 | 0.01 | 0.41 | 0.17 | 100 | 1013.1 |
| 20260507024525 | 53 | 130 | 0.0 | 0.0 | 0.01 | 0.43 | 0.17 | 100 | 1013.3 |
| 20260507023024 | 53 | 130 | 0.0 | 0.0 | 0.00 | 0.42 | 0.16 | 100 | 1013.3 |
| 20260507021524 | 53 | 130 | 0.0 | 0.0 | 0.00 | 0.42 | 0.16 | 100 | 1013.3 |
| 20260507020028 | 53 | 130 | 0.0 | 0.0 | 0.00 | 0.42 | 0.16 | 100 | 1013.2 |
| 20260507014528 | 53 | 134 | 0.0 | 0.0 | 0.01 | 0.43 | 0.16 | 100 | 1013.2 |
| 20260507013040 | 53 | 134 | 0.0 | 0.0 | 0.02 | 0.43 | 0.16 | 100 | 1013.2 |
| 20260507011522 | 53 | 134 | 0.0 | 2.0 | 0.02 | 0.43 | 0.16 | 99 | 1013.3 |
| 20260507010025 | 53 | 134 | 0.0 | 4.0 | 0.02 | 0.43 | 0.16 | 99 | 1013.3 |
| 20260507004518 | 54 | 147 | 0.0 | 9.0 | 0.01 | 0.46 | 0.15 | 100 | 1013.3 |
| 20260507003017 | 54 | 168 | 0.0 | 6.0 | 0.01 | 0.46 | 0.14 | 100 | 1013.4 |
| 20260507001516 | 54 | 98 | 1.0 | 9.0 | 0.02 | 0.46 | 0.14 | 99 | 1013.3 |
| 20260507000015 | 54 | 133 | 1.0 | 8.0 | 0.04 | 0.46 | 0.14 | 99 | 1013.3 |
| 20260506234515 | 54 | 94 | 2.0 | 6.0 | 0.06 | 0.46 | 0.14 | 99 | 1013.3 |
| 20260506233012 | 55 | 136 | 0.0 | 4.0 | 0.09 | 0.46 | 0.13 | 99 | 1013.3 |
| 20260506231510 | 55 | 156 | 0.0 | 9.0 | 0.09 | 0.44 | 0.12 | 100 | 1013.4 |
| 20260506230009 | 55 | 179 | 0.0 | 7.0 | 0.10 | 0.43 | 0.10 | 99 | 1013.4 |
| 20260506224508 | 55 | 109 | 1.0 | 4.0 | 0.10 | 0.40 | 0.08 | 100 | 1013.6 |
| 20260506223006 | 55 | 160 | 0.0 | 0.0 | 0.07 | 0.36 | 0.04 | 99 | 1013.7 |
| 20260506221505 | 55 | 162 | 0.0 | 2.0 | 0.07 | 0.35 | 0.02 | 99 | 1013.6 |
| 20260506220002 | 55 | 130 | 1.0 | 9.0 | 0.07 | 0.32 | 0.32 | 99 | 1013.6 |
| 20260506214505 | 55 | 123 | 0.0 | 6.0 | 0.06 | 0.30 | 0.30 | 100 | 1013.6 |
| 20260506213002 | 55 | 157 | 0.0 | 9.0 | 0.09 | 0.28 | 0.28 | 100 | 1013.8 |
| 20260506211501 | 55 | 105 | 1.0 | 9.0 | 0.08 | 0.27 | 0.27 | 100 | 1013.6 |
| 20260506210101 | 55 | 125 | 0.0 | 7.0 | 0.08 | 0.26 | 0.26 | 99 | 1013.8 |
| 20260506204559 | 55 | 126 | 2.0 | 9.0 | 0.06 | 0.24 | 0.24 | 99 | 1013.9 |
| 20260506203100 | 55 | 199 | 0.0 | 12.0 | 0.03 | 0.20 | 0.20 | 99 | 1013.9 |
| 20260506201559 | 55 | 179 | 0.0 | 3.0 | 0.02 | 0.19 | 0.19 | 99 | 1013.9 |
| 20260506200058 | 55 | 136 | 1.0 | 10.0 | 0.01 | 0.18 | 0.18 | 99 | 1013.5 |
| 20260506194602 | 55 | 195 | 2.0 | 11.0 | 0.00 | 0.17 | 0.17 | 99 | 1013.2 |
| 20260506193057 | 55 | 257 | 1.0 | 9.0 | 0.01 | 0.17 | 0.17 | 99 | 1012.9 |
| 20260506191557 | 56 | 142 | 0.0 | 10.0 | 0.01 | 0.17 | 0.17 | 99 | 1012.9 |
| 20260506190058 | 56 | 150 | 1.0 | 8.0 | 0.02 | 0.17 | 0.17 | 99 | 1012.6 |
| 20260506184559 | 56 | 58 | 1.0 | 9.0 | 0.02 | 0.17 | 0.17 | 99 | 1012.5 |
| 20260506183103 | 56 | 149 | 1.0 | 10.0 | 0.02 | 0.17 | 0.17 | 99 | 1012.6 |
| 20260506181620 | 55 | 117 | 2.0 | 15.0 | 0.02 | 0.17 | 0.17 | 99 | 1012.5 |
| 20260506180054 | 56 | 132 | 2.0 | 9.0 | 0.02 | 0.16 | 0.16 | 98 | 1012.6 |
| 20260506174554 | 56 | 119 | 2.0 | 7.0 | 0.02 | 0.15 | 0.15 | 98 | 1012.5 |
| 20260506173100 | 56 | 152 | 1.0 | 8.0 | 0.01 | 0.14 | 0.14 | 98 | 1012.5 |
| 20260506171552 | 56 | 142 | 2.0 | 14.0 | 0.01 | 0.14 | 0.14 | 98 | 1012.3 |
| 20260506170055 | 56 | 204 | 1.0 | 7.0 | 0.00 | 0.13 | 0.13 | 98 | 1012.5 |
| 20260506164551 | 56 | 185 | 2.0 | 9.0 | 0.00 | 0.13 | 0.13 | 98 | 1012.6 |
| 20260506163051 | 56 | 207 | 0.0 | 8.0 | 0.00 | 0.13 | 0.13 | 97 | 1012.8 |
| 20260506161549 | 56 | 78 | 3.0 | 12.0 | 0.00 | 0.13 | 0.13 | 97 | 1012.9 |
| 20260506160053 | 56 | 79 | 2.0 | 8.0 | 0.00 | 0.13 | 0.13 | 97 | 1013.0 |
| 20260506154550 | 56 | 125 | 1.0 | 9.0 | 0.00 | 0.13 | 0.13 | 97 | 1012.9 |
| 20260506153107 | 56 | 140 | 1.0 | 9.0 | 0.00 | 0.13 | 0.13 | 97 | 1012.9 |
| 20260506151546 | 56 | 219 | 2.0 | 7.0 | 0.00 | 0.13 | 0.13 | 97 | 1012.9 |
| 20260506150056 | 57 | 181 | 2.0 | 11.0 | 0.00 | 0.13 | 0.13 | 96 | 1012.9 |
| 20260506144554 | 57 | 157 | 3.0 | 10.0 | 0.00 | 0.13 | 0.13 | 96 | 1012.8 |
| 20260506143045 | 57 | 173 | 3.0 | 10.0 | 0.00 | 0.13 | 0.13 | 96 | 1012.9 |
| 20260506141544 | 56 | 194 | 2.0 | 10.0 | 0.00 | 0.13 | 0.13 | 96 | 1012.8 |
| 20260506140044 | 56 | 212 | 1.0 | 10.0 | 0.00 | 0.13 | 0.13 | 96 | 1012.9 |
| 20260506134543 | 57 | 123 | 1.0 | 11.0 | 0.00 | 0.13 | 0.13 | 95 | 1013.1 |
| 20260506133047 | 57 | 32 | 1.0 | 11.0 | 0.00 | 0.13 | 0.13 | 94 | 1013.1 |
| 20260506131551 | 57 | 171 | 3.0 | 10.0 | 0.00 | 0.13 | 0.13 | 94 | 1013.3 |
| 20260506130042 | 57 | 221 | 2.0 | 10.0 | 0.00 | 0.13 | 0.13 | 95 | 1013.1 |
| 20260506124540 | 56 | 195 | 1.0 | 6.0 | 0.00 | 0.13 | 0.13 | 95 | 1013.4 |
| 20260506123040 | 56 | 74 | 2.0 | 8.0 | 0.00 | 0.13 | 0.13 | 95 | 1013.5 |
| 20260506121539 | 56 | 146 | 1.0 | 7.0 | 0.00 | 0.13 | 0.13 | 95 | 1013.6 |
| 20260506120041 | 56 | 300 | 3.0 | 14.0 | 0.00 | 0.13 | 0.13 | 94 | 1013.6 |
| 20260506114538 | 56 | 228 | 1.0 | 10.0 | 0.00 | 0.13 | 0.13 | 94 | 1013.6 |
| 20260506113042 | 57 | 159 | 2.0 | 8.0 | 0.00 | 0.13 | 0.13 | 93 | 1013.5 |
| 20260506111538 | 57 | 196 | 3.0 | 11.0 | 0.00 | 0.13 | 0.13 | 91 | 1013.5 |
| 20260506110037 | 58 | 105 | 1.0 | 14.0 | 0.00 | 0.13 | 0.13 | 89 | 1013.3 |
| 20260506104537 | 60 | 150 | 3.0 | 16.0 | 0.00 | 0.13 | 0.13 | 85 | 1013.7 |
| 20260506103039 | 61 | 148 | 2.0 | 13.0 | 0.00 | 0.13 | 0.13 | 84 | 1013.6 |
| 20260506101532 | 60 | 166 | 3.0 | 12.0 | 0.00 | 0.13 | 0.13 | 83 | 1013.5 |
| 20260506100037 | 59 | 167 | 3.0 | 16.0 | 0.00 | 0.13 | 0.13 | 80 | 1013.7 |
| 20260506094530 | 60 | 178 | 4.0 | 14.0 | 0.00 | 0.13 | 0.13 | 82 | 1013.6 |
| 20260506093031 | 59 | 138 | 2.0 | 13.0 | 0.00 | 0.13 | 0.13 | 83 | 1013.6 |
| 20260506091531 | 60 | 303 | 1.0 | 9.0 | 0.00 | 0.13 | 0.13 | 85 | 1013.2 |
| 20260506090029 | 59 | 48 | 1.0 | 14.0 | 0.00 | 0.13 | 0.13 | 85 | 1013.4 |
| 20260506084523 | 59 | 280 | 2.0 | 12.0 | 0.00 | 0.13 | 0.13 | 86 | 1013.4 |
| 20260506083021 | 58 | 136 | 1.0 | 13.0 | 0.00 | 0.13 | 0.13 | 86 | 1013.5 |